TimeEST,TemperatureF,Dew PointF,Humidity,Sea Level PressureIn,VisibilityMPH,Wind Direction,Wind SpeedMPH,Gust SpeedMPH,PrecipitationIn,Events,Conditions,WindDirDegrees,DateUTC
12:15 AM,33.8,24.8,70,29.97,10.0,WNW,24.2,34.5,N/A,,Scattered Clouds,290,2013-11-19 05:15:00
12:35 AM,33.8,24.8,70,29.97,10.0,WNW,21.9,34.5,N/A,,Scattered Clouds,290,2013-11-19 05:35:00
12:55 AM,32.0,24.8,75,29.97,10.0,WNW,25.3,33.4,N/A,,Scattered Clouds,290,2013-11-19 05:55:00
1:15 AM,32.0,24.8,75,29.97,10.0,WNW,24.2,33.4,N/A,,Scattered Clouds,290,2013-11-19 06:15:00
1:35 AM,30.2,23.0,75,29.97,10.0,WNW,24.2,32.2,N/A,,Scattered Clouds,290,2013-11-19 06:35:00
1:55 AM,30.2,23.0,75,29.97,10.0,WNW,23.0,32.2,N/A,,Clear,290,2013-11-19 06:55:00
2:15 AM,30.2,23.0,75,29.97,10.0,WNW,17.3,29.9,N/A,,Clear,290,2013-11-19 07:15:00
2:35 AM,30.2,23.0,75,29.96,10.0,WNW,18.4,27.6,N/A,,Clear,290,2013-11-19 07:35:00
2:55 AM,30.2,21.2,69,29.96,10.0,WNW,19.6,33.4,N/A,,Clear,300,2013-11-19 07:55:00
3:15 AM,28.4,21.2,74,29.97,10.0,WNW,16.1,28.8,N/A,,Clear,300,2013-11-19 08:15:00
3:35 AM,28.4,21.2,74,29.98,10.0,WNW,13.8,25.3,N/A,,Clear,300,2013-11-19 08:35:00
3:55 AM,28.4,21.2,74,29.99,10.0,WNW,17.3,27.6,N/A,,Scattered Clouds,300,2013-11-19 08:55:00
4:15 AM,28.4,21.2,74,29.99,10.0,WNW,18.4,25.3,N/A,,Clear,290,2013-11-19 09:15:00
5:15 AM,26.6,21.2,80,30.00,10.0,NW,16.1,23.0,N/A,,Scattered Clouds,310,2013-11-19 10:15:00
5:35 AM,26.6,21.2,80,30.00,10.0,WNW,19.6,26.5,N/A,,Scattered Clouds,300,2013-11-19 10:35:00
5:55 AM,26.6,21.2,80,30.02,10.0,WNW,15.0,26.5,N/A,,Clear,300,2013-11-19 10:55:00
6:15 AM,26.6,21.2,80,30.03,10.0,NW,15.0,24.2,N/A,,Clear,310,2013-11-19 11:15:00
6:35 AM,26.6,21.2,80,30.04,10.0,NW,17.3,25.3,N/A,,Clear,310,2013-11-19 11:35:00
6:55 AM,26.6,21.2,80,30.05,10.0,WNW,15.0,21.9,N/A,,Scattered Clouds,300,2013-11-19 11:55:00
7:15 AM,24.8,21.2,86,30.07,10.0,NW,13.8,19.6,N/A,,Mostly Cloudy,310,2013-11-19 12:15:00
7:35 AM,26.6,21.2,80,30.09,10.0,WNW,9.2,21.9,N/A,,Overcast,290,2013-11-19 12:35:00
7:55 AM,26.6,21.2,80,30.10,10.0,WNW,10.4,17.3,N/A,,Overcast,300,2013-11-19 12:55:00
8:15 AM,26.6,21.2,80,30.11,10.0,NW,13.8,19.6,N/A,,Overcast,310,2013-11-19 13:15:00
8:35 AM,26.6,21.2,80,30.12,10.0,NW,6.9,18.4,N/A,,Mostly Cloudy,320,2013-11-19 13:35:00
8:55 AM,26.6,21.2,80,30.13,10.0,NW,8.1,-,N/A,,Overcast,310,2013-11-19 13:55:00
9:15 AM,26.6,21.2,80,30.14,10.0,NW,8.1,-,N/A,,Overcast,320,2013-11-19 14:15:00
9:35 AM,26.6,21.2,80,30.15,10.0,NNW,6.9,-,N/A,,Overcast,330,2013-11-19 14:35:00
9:55 AM,28.4,21.2,74,30.16,10.0,NNW,8.1,-,N/A,,Overcast,340,2013-11-19 14:55:00
10:15 AM,28.4,21.2,74,30.17,10.0,NNW,9.2,-,N/A,,Overcast,330,2013-11-19 15:15:00
10:35 AM,30.2,21.2,69,30.17,10.0,NW,9.2,-,N/A,,Mostly Cloudy,320,2013-11-19 15:35:00
10:55 AM,30.2,21.2,69,30.17,10.0,NNW,10.4,-,N/A,,Scattered Clouds,340,2013-11-19 15:55:00
11:15 AM,30.2,21.2,69,30.17,10.0,NW,12.7,17.3,N/A,,Scattered Clouds,320,2013-11-19 16:15:00
11:35 AM,30.2,23.0,75,30.17,10.0,NNW,11.5,-,N/A,,Clear,340,2013-11-19 16:35:00
11:55 AM,32.0,23.0,69,30.16,10.0,NW,9.2,17.3,N/A,,Clear,310,2013-11-19 16:55:00
12:15 PM,32.0,23.0,69,30.17,10.0,NW,9.2,16.1,N/A,,Clear,310,2013-11-19 17:15:00
12:35 PM,33.8,23.0,65,30.16,10.0,NNW,6.9,17.3,N/A,,Clear,340,2013-11-19 17:35:00
12:55 PM,33.8,23.0,65,30.15,10.0,NNW,11.5,21.9,N/A,,Clear,330,2013-11-19 17:55:00
1:15 PM,33.8,23.0,65,30.16,10.0,NW,10.4,-,N/A,,Clear,310,2013-11-19 18:15:00
1:35 PM,33.8,23.0,65,30.15,10.0,NNW,12.7,-,N/A,,Clear,330,2013-11-19 18:35:00
1:55 PM,35.6,23.0,60,30.15,10.0,NNW,11.5,17.3,N/A,,Clear,330,2013-11-19 18:55:00
2:15 PM,33.8,21.2,60,30.14,10.0,NW,5.8,-,N/A,,Clear,310,2013-11-19 19:15:00
2:35 PM,33.8,23.0,65,30.15,10.0,NW,6.9,-,N/A,,Clear,320,2013-11-19 19:35:00
2:55 PM,33.8,21.2,60,30.15,10.0,North,8.1,-,N/A,,Clear,350,2013-11-19 19:55:00
3:15 PM,35.6,23.0,60,30.16,10.0,NW,8.1,-,N/A,,Clear,310,2013-11-19 20:15:00
3:35 PM,35.6,21.2,56,30.16,10.0,WNW,5.8,-,N/A,,Clear,290,2013-11-19 20:35:00
3:55 PM,33.8,21.2,60,30.17,10.0,NW,5.8,-,N/A,,Clear,320,2013-11-19 20:55:00
4:15 PM,33.8,21.2,60,30.18,10.0,NNW,4.6,-,N/A,,Clear,340,2013-11-19 21:15:00
4:35 PM,33.8,21.2,60,30.18,10.0,NW,4.6,-,N/A,,Clear,310,2013-11-19 21:35:00
5:35 PM,30.2,21.2,69,30.21,10.0,WNW,4.6,-,N/A,,Clear,300,2013-11-19 22:35:00
5:55 PM,30.2,21.2,69,30.21,10.0,NW,8.1,-,N/A,,Clear,310,2013-11-19 22:55:00
6:15 PM,30.2,21.2,69,30.22,10.0,WNW,4.6,-,N/A,,Clear,300,2013-11-19 23:15:00
6:35 PM,28.4,21.2,74,30.23,10.0,NW,4.6,-,N/A,,Clear,320,2013-11-19 23:35:00
8:15 PM,28.4,21.2,74,30.24,10.0,North,6.9,-,N/A,,Clear,10,2013-11-20 01:15:00
8:35 PM,28.4,21.2,74,30.24,10.0,NE,5.8,-,N/A,,Clear,40,2013-11-20 01:35:00
10:15 PM,28.4,21.2,74,30.26,10.0,ENE,4.6,-,N/A,,Clear,60,2013-11-20 03:15:00
11:15 PM,26.6,19.4,74,30.27,10.0,ENE,6.9,-,N/A,,Clear,70,2013-11-20 04:15:00
11:55 PM,26.6,19.4,74,30.27,10.0,East,8.1,-,N/A,,Clear,80,2013-11-20 04:55:00